,,Stat6,,Stat2,,Stat8,,Stat9,,Stat10,,Wind1,,Wind1,
time,status,PA1M_AVG,status,PR1M_SUM,status,RH1M_AVG,status,SR1M_AVG,status,TA1M_AVG,status,W1dAve1m,status,W1sAve1m,
2007-02-26, 00:00:00,VALID,916.309,VALID,0,VALID,100,VALID,0.0849042,VALID,20.2606,VALID,20,VALID,1.40811,
2007-02-26, 00:01:00,VALID,916.282,VALID,0,VALID,100,VALID,0.101885,VALID,20.2703,VALID,25,VALID,1.61528,
2007-02-26, 00:02:00,VALID,916.284,VALID,0,VALID,100,VALID,0.118866,VALID,20.303,VALID,23,VALID,0.952431,
2007-02-26, 00:03:00,VALID,916.271,VALID,0,VALID,100,VALID,0.101885,VALID,20.2987,VALID,20,VALID,0.510671,
2007-02-26, 00:04:00,VALID,916.266,VALID,0,VALID,100,VALID,0.101885,VALID,20.306,VALID,21,VALID,0.127734,
2007-02-26, 00:05:00,VALID,916.256,VALID,0,VALID,100,VALID,0.0849042,VALID,20.312,VALID,21,VALID,0.112645,
2007-02-26, 00:06:00,VALID,916.257,VALID,0,VALID,100,VALID,0.101885,VALID,20.318,VALID,22,VALID,0.347834,
2007-02-26, 00:07:00,VALID,916.245,VALID,0,VALID,100,VALID,0.101885,VALID,20.3347,VALID,32,VALID,0.769717,
2007-02-26, 00:08:00,VALID,916.226,VALID,0,VALID,100,VALID,0.0849042,VALID,20.3447,VALID,21,VALID,0.850632,
2007-02-26, 00:09:00,VALID,916.189,VALID,0,VALID,100,VALID,0.101885,VALID,20.3474,VALID,26,VALID,0.837081,
2007-02-26, 00:10:00,VALID,916.157,VALID,0,VALID,100,VALID,0.0849042,VALID,20.3509,VALID,14,VALID,0.800595,
2007-02-26, 00:11:00,VALID,916.121,VALID,0,VALID,100,VALID,0.101885,VALID,20.3085,VALID,7,VALID,0.306141,
2007-02-26, 00:12:00,VALID,916.098,VALID,0,VALID,100,VALID,0.0849042,VALID,20.3017,VALID,7,VALID,0.320685,
2007-02-26, 00:13:00,VALID,916.08,VALID,0,VALID,100,VALID,0.0169808,VALID,20.323,VALID,7,VALID,0.563996,
2007-02-26, 00:14:00,VALID,916.079,VALID,0,VALID,100,VALID,-0.0169808,VALID,20.3265,VALID,8,VALID,0.610764,
2007-02-26, 00:15:00,VALID,916.069,VALID,0,VALID,100,VALID,-0.0339617,VALID,20.3455,VALID,23,VALID,0.804315,
2007-02-26, 00:16:00,VALID,916.081,VALID,0,VALID,100,VALID,0,VALID,20.3779,VALID,28,VALID,0.943314,
2007-02-26, 00:17:00,VALID,916.095,VALID,0,VALID,100,VALID,0,VALID,20.4201,VALID,22,VALID,0.818537,
2007-02-26, 00:18:00,VALID,916.119,VALID,0,VALID,100,VALID,-0.0169808,VALID,20.4071,VALID,5,VALID,0.802641,
2007-02-26, 00:19:00,VALID,916.127,VALID,0,VALID,100,VALID,0,VALID,20.3811,VALID,11,VALID,1.19866,
2007-02-26, 00:20:00,VALID,916.152,VALID,0,VALID,100,VALID,-0.0339617,VALID,20.3724,VALID,348,VALID,0.744731,
2007-02-26, 00:21:00,VALID,916.177,VALID,0,VALID,100,VALID,-0.0169808,VALID,20.3782,VALID,19,VALID,0.949963,
2007-02-26, 00:22:00,VALID,916.193,VALID,0,VALID,100,VALID,0,VALID,20.3944,VALID,19,VALID,0.652344,
2007-02-26, 00:23:00,VALID,916.2,VALID,0,VALID,100,VALID,-0.0169808,VALID,20.4266,VALID,25,VALID,0.507813,
2007-02-26, 00:24:00,VALID,916.206,VALID,0,VALID,100,VALID,0,VALID,20.479,VALID,28,VALID,0.0895433,
2007-02-26, 00:25:00,VALID,916.226,VALID,0,VALID,100,VALID,0,VALID,20.4755,VALID,28,VALID,0.12872,
2007-02-26, 00:26:00,VALID,916.23,VALID,0,VALID,100,VALID,-0.0169808,VALID,20.4858,VALID,23,VALID,0.153125,
2007-02-26, 00:27:00,VALID,916.222,VALID,0,VALID,100,VALID,0,VALID,20.4763,VALID,16,VALID,0.249628,
2007-02-26, 00:28:00,VALID,916.214,VALID,0,VALID,100,VALID,0,VALID,20.4495,VALID,15,VALID,1.06771,
2007-02-26, 00:29:00,VALID,916.204,VALID,0,VALID,100,VALID,0.0169808,VALID,20.446,VALID,26,VALID,1.29092,
2007-02-26, 00:30:00,VALID,916.201,VALID,0,VALID,100,VALID,0,VALID,20.476,VALID,16,VALID,0.880814,
2007-02-26, 00:31:00,VALID,916.184,VALID,0.2,VALID,100,VALID,-0.0169808,VALID,20.4887,VALID,355,VALID,1.10029,
2007-02-26, 00:32:00,VALID,916.144,VALID,0,VALID,100,VALID,0,VALID,20.3752,VALID,326,VALID,1.3003,
2007-02-26, 00:33:00,VALID,916.148,VALID,0,VALID,100,VALID,-0.0169808,VALID,20.4076,VALID,14,VALID,0.68608,
2007-02-26, 00:34:00,VALID,916.137,VALID,0,VALID,100,VALID,0,VALID,20.4306,VALID,38,VALID,1.28659,
2007-02-26, 00:35:00,VALID,916.114,VALID,0,VALID,100,VALID,-0.0339617,VALID,20.4206,VALID,36,VALID,1.42205,
2007-02-26, 00:36:00,VALID,916.119,VALID,0,VALID,100,VALID,-0.0169808,VALID,20.4079,VALID,39,VALID,1.27998,
2007-02-26, 00:37:00,VALID,916.114,VALID,0,VALID,100,VALID,-0.0509425,VALID,20.4341,VALID,37,VALID,1.17763,
2007-02-26, 00:38:00,VALID,916.105,VALID,0,VALID,100,VALID,-0.0169808,VALID,20.4244,VALID,39,VALID,1.32207,
2007-02-26, 00:39:00,VALID,916.114,VALID,0,VALID,100,VALID,0,VALID,20.4139,VALID,34,VALID,1.45015,
2007-02-26, 00:40:00,VALID,916.123,VALID,0,VALID,100,VALID,-0.0169808,VALID,20.4111,VALID,26,VALID,1.42496,
2007-02-26, 00:41:00,VALID,916.144,VALID,0,VALID,100,VALID,-0.0169808,VALID,20.3722,VALID,39,VALID,1.40805,
2007-02-26, 00:42:00,VALID,916.143,VALID,0,VALID,100,VALID,-0.0169808,VALID,20.3457,VALID,36,VALID,1.37351,
2007-02-26, 00:43:00,VALID,916.134,VALID,0,VALID,100,VALID,0.0169808,VALID,20.3427,VALID,34,VALID,1.38396,
2007-02-26, 00:44:00,VALID,916.12,VALID,0,VALID,100,VALID,0,VALID,20.3392,VALID,37,VALID,1.10866,
2007-02-26, 00:45:00,VALID,916.094,VALID,0,VALID,100,VALID,-0.0169808,VALID,20.323,VALID,31,VALID,0.81032,
2007-02-26, 00:46:00,VALID,916.052,VALID,0,VALID,100,VALID,-0.0169808,VALID,20.31,VALID,32,VALID,0.660156,
2007-02-26, 00:47:00,VALID,916.03,VALID,0,VALID,100,VALID,-0.0339617,VALID,20.3265,VALID,32,VALID,0.676525,
2007-02-26, 00:48:00,VALID,916.018,VALID,0,VALID,100,VALID,-0.0169808,VALID,20.2965,VALID,32,VALID,0.699219,
2007-02-26, 00:49:00,VALID,915.998,VALID,0,VALID,100,VALID,-0.0339617,VALID,20.2965,VALID,40,VALID,0.77066,
2007-02-26, 00:50:00,VALID,916.011,VALID,0,VALID,100,VALID,-0.0339617,VALID,20.2938,VALID,43,VALID,0.714177,
2007-02-26, 00:51:00,VALID,916.032,VALID,0,VALID,100,VALID,-0.0679233,VALID,20.2903,VALID,37,VALID,0.982777,
2007-02-26, 00:52:00,VALID,916.026,VALID,0,VALID,100,VALID,-0.0339617,VALID,20.2711,VALID,45,VALID,0.841493,
2007-02-26, 00:53:00,VALID,916.018,VALID,0,VALID,100,VALID,-0.0679233,VALID,20.2811,VALID,46,VALID,0.807736,
2007-02-26, 00:54:00,VALID,915.993,VALID,0,VALID,100,VALID,0,VALID,20.29,VALID,40,VALID,0.790365,
2007-02-26, 00:55:00,VALID,915.959,VALID,0,VALID,100,VALID,-0.0169808,VALID,20.31,VALID,51,VALID,0.845117,
2007-02-26, 00:56:00,VALID,915.933,VALID,0,VALID,100,VALID,-0.0169808,VALID,20.3038,VALID,47,VALID,0.958807,
2007-02-26, 00:57:00,VALID,915.896,VALID,0,VALID,100,VALID,-0.0509425,VALID,20.3238,VALID,50,VALID,1.51414,
2007-02-26, 00:58:00,VALID,915.875,VALID,0,VALID,100,VALID,-0.0509425,VALID,20.31,VALID,46,VALID,1.36719,
2007-02-26, 00:59:00,VALID,915.862,VALID,0,VALID,100,VALID,-0.0509425,VALID,20.3075,VALID,53,VALID,1.64063,
2007-02-26, 01:00:00,VALID,915.873,VALID,0,VALID,100,VALID,-0.0339617,VALID,20.2748,VALID,25,VALID,1.26215,
2007-02-26, 01:01:00,VALID,915.868,VALID,0,VALID,100,VALID,-0.0339617,VALID,20.2678,VALID,37,VALID,1.02253,
2007-02-26, 01:02:00,VALID,915.861,VALID,0,VALID,100,VALID,-0.0509425,VALID,20.2903,VALID,36,VALID,1.14405,
2007-02-26, 01:03:00,VALID,915.855,VALID,0,VALID,100,VALID,-0.0169808,VALID,20.3292,VALID,34,VALID,0.737393,
2007-02-26, 01:04:00,VALID,915.85,VALID,0,VALID,100,VALID,-0.0169808,VALID,20.3425,VALID,27,VALID,0.778232,
2007-02-26, 01:05:00,VALID,915.835,VALID,0,VALID,100,VALID,-0.0509425,VALID,20.3168,VALID,13,VALID,1.30004,
2007-02-26, 01:06:00,VALID,915.821,VALID,0,VALID,100,VALID,-0.0169808,VALID,20.2998,VALID,26,VALID,1.14512,
2007-02-26, 01:07:00,VALID,915.809,VALID,0,VALID,100,VALID,-0.0339617,VALID,20.3322,VALID,31,VALID,1.19459,
2007-02-26, 01:08:00,VALID,915.78,VALID,0,VALID,100,VALID,-0.0339617,VALID,20.3587,VALID,32,VALID,1.39862,
2007-02-26, 01:09:00,VALID,915.764,VALID,0,VALID,100,VALID,0,VALID,20.3425,VALID,28,VALID,1.33485,
2007-02-26, 01:10:00,VALID,915.732,VALID,0,VALID,99.9916,VALID,-0.0169808,VALID,20.3127,VALID,26,VALID,1.49638,
2007-02-26, 01:11:00,VALID,915.696,VALID,0,VALID,100,VALID,-0.0169808,VALID,20.316,VALID,23,VALID,1.38948,
2007-02-26, 01:12:00,VALID,915.659,VALID,0,VALID,100,VALID,-0.0169808,VALID,20.316,VALID,39,VALID,1.68803,
2007-02-26, 01:13:00,VALID,915.649,VALID,0,VALID,99.984,VALID,-0.0169808,VALID,20.3065,VALID,42,VALID,0.888951,
2007-02-26, 01:14:00,VALID,915.621,VALID,0,VALID,100,VALID,-0.0339617,VALID,20.3098,VALID,32,VALID,0.59304,
2007-02-26, 01:15:00,VALID,915.621,VALID,0,VALID,100,VALID,-0.0339617,VALID,20.287,VALID,334,VALID,0.601744,
2007-02-26, 01:16:00,VALID,915.621,VALID,0,VALID,100,VALID,-0.0509425,VALID,20.2708,VALID,314,VALID,0.13244,
2007-02-26, 01:17:00,VALID,915.643,VALID,0,VALID,100,VALID,-0.0169808,VALID,20.2773,VALID,314,VALID,0.163707,
2007-02-26, 01:18:00,VALID,915.656,VALID,0,VALID,100,VALID,0,VALID,20.2738,VALID,314,VALID,0,
2007-02-26, 01:19:00,VALID,915.677,VALID,0,VALID,100,VALID,-0.0169808,VALID,20.2873,VALID,314,VALID,0.00121528,
2007-02-26, 01:20:00,VALID,915.687,VALID,0,VALID,100,VALID,0,VALID,20.3063,VALID,314,VALID,0.00218023,
2007-02-26, 01:21:00,VALID,915.696,VALID,0,VALID,100,VALID,-0.0339617,VALID,20.339,VALID,314,VALID,0,
2007-02-26, 01:22:00,VALID,915.704,VALID,0,VALID,100,VALID,-0.0339617,VALID,20.3822,VALID,314,VALID,0,
2007-02-26, 01:23:00,VALID,915.709,VALID,0,VALID,100,VALID,-0.0339617,VALID,20.3879,VALID,314,VALID,0.047433,
2007-02-26, 01:24:00,VALID,915.715,VALID,0,VALID,100,VALID,-0.0339617,VALID,20.3452,VALID,327,VALID,0.364281,
2007-02-26, 01:25:00,VALID,915.712,VALID,0,VALID,100,VALID,-0.0849042,VALID,20.3527,VALID,38,VALID,0.512607,
2007-02-26, 01:26:00,VALID,915.709,VALID,0,VALID,99.9133,VALID,-0.0169808,VALID,20.2903,VALID,12,VALID,0.842014,
2007-02-26, 01:27:00,VALID,915.693,VALID,0,VALID,99.6582,VALID,0,VALID,20.2576,VALID,41,VALID,1.13033,
2007-02-26, 01:28:00,VALID,915.686,VALID,0,VALID,99.3416,VALID,-0.0169808,VALID,20.2384,VALID,45,VALID,1.27435,
2007-02-26, 01:29:00,VALID,915.661,VALID,0,VALID,99.2678,VALID,-0.0169808,VALID,20.2351,VALID,55,VALID,0.811592,
2007-02-26, 01:30:00,VALID,915.662,VALID,0,VALID,99.2131,VALID,-0.0509425,VALID,20.2546,VALID,50,VALID,0.787246,
2007-02-26, 01:31:00,VALID,915.649,VALID,0,VALID,99.1,VALID,-0.0679233,VALID,20.2446,VALID,51,VALID,0.626453,
2007-02-26, 01:32:00,VALID,915.638,VALID,0,VALID,99.1038,VALID,-0.0169808,VALID,20.2519,VALID,40,VALID,0.568309,
2007-02-26, 01:33:00,VALID,915.652,VALID,0,VALID,99.2068,VALID,-0.0339617,VALID,20.2351,VALID,39,VALID,0.774023,
2007-02-26, 01:34:00,VALID,915.638,VALID,0,VALID,99.2347,VALID,-0.0679233,VALID,20.2254,VALID,43,VALID,1.26135,
2007-02-26, 01:35:00,VALID,915.638,VALID,0,VALID,99.3187,VALID,-0.0509425,VALID,20.2032,VALID,45,VALID,1.17132,
2007-02-26, 01:36:00,VALID,915.629,VALID,0,VALID,99.4649,VALID,-0.0509425,VALID,20.1865,VALID,61,VALID,1.31854,
2007-02-26, 01:37:00,VALID,915.621,VALID,0,VALID,99.6633,VALID,-0.0339617,VALID,20.1865,VALID,44,VALID,1.27326,
2007-02-26, 01:38:00,VALID,915.608,VALID,0,VALID,99.6785,VALID,-0.0339617,VALID,20.177,VALID,43,VALID,1.24107,
2007-02-26, 01:39:00,VALID,915.603,VALID,0,VALID,99.7548,VALID,-0.0169808,VALID,20.167,VALID,36,VALID,1.08017,
2007-02-26, 01:40:00,VALID,915.587,VALID,0,VALID,99.8121,VALID,-0.0169808,VALID,20.1705,VALID,41,VALID,0.886914,
2007-02-26, 01:41:00,VALID,915.564,VALID,0,VALID,99.8248,VALID,-0.0509425,VALID,20.164,VALID,47,VALID,0.941016,
2007-02-26, 01:42:00,VALID,915.56,VALID,0,VALID,99.9379,VALID,-0.0339617,VALID,20.1543,VALID,43,VALID,0.964571,
2007-02-26, 01:43:00,VALID,915.541,VALID,0,VALID,99.973,VALID,-0.0169808,VALID,20.144,VALID,40,VALID,1.16719,
2007-02-26, 01:44:00,VALID,915.527,VALID,0,VALID,99.9977,VALID,0.0339617,VALID,20.1268,VALID,38,VALID,0.822731,
2007-02-26, 01:45:00,VALID,915.511,VALID,0,VALID,100,VALID,0.0509425,VALID,20.1503,VALID,40,VALID,1.12413,
2007-02-26, 01:46:00,VALID,915.501,VALID,0,VALID,99.9652,VALID,0.0169808,VALID,20.1008,VALID,50,VALID,1.51235,
2007-02-26, 01:47:00,VALID,915.487,VALID,0,VALID,99.9845,VALID,0.0169808,VALID,20.0919,VALID,42,VALID,1.20313,
2007-02-26, 01:48:00,VALID,915.49,VALID,0,VALID,99.9438,VALID,-0.0169808,VALID,20.0916,VALID,33,VALID,1.23931,
2007-02-26, 01:49:00,VALID,915.479,VALID,0,VALID,99.5641,VALID,0.0679233,VALID,20.0529,VALID,39,VALID,1.24405,
2007-02-26, 01:50:00,VALID,915.466,VALID,0,VALID,99.484,VALID,0.0169808,VALID,20.0529,VALID,26,VALID,0.929874,
2007-02-26, 01:51:00,VALID,915.431,VALID,0,VALID,99.3924,VALID,0.0169808,VALID,20.0499,VALID,22,VALID,0.945668,
2007-02-26, 01:52:00,VALID,915.396,VALID,0,VALID,99.2996,VALID,0.0339617,VALID,20.0327,VALID,35,VALID,0.85026,
2007-02-26, 01:53:00,VALID,915.359,VALID,0,VALID,99.1394,VALID,0.0339617,VALID,20.0135,VALID,27,VALID,0.931362,
2007-02-26, 01:54:00,VALID,915.305,VALID,0,VALID,99.1991,VALID,0.0169808,VALID,20.0108,VALID,40,VALID,0.845656,
2007-02-26, 01:55:00,VALID,915.273,VALID,0,VALID,99.3365,VALID,-0.0169808,VALID,20.0207,VALID,33,VALID,0.612749,
2007-02-26, 01:56:00,VALID,915.235,VALID,0,VALID,99.4051,VALID,0.0339617,VALID,20.0402,VALID,33,VALID,0.600991,
2007-02-26, 01:57:00,VALID,915.221,VALID,0,VALID,99.5692,VALID,0,VALID,20.0332,VALID,33,VALID,0.447493,
2007-02-26, 01:58:00,VALID,915.189,VALID,0,VALID,99.5539,VALID,0.0339617,VALID,20.0554,VALID,50,VALID,0.556362,
2007-02-26, 01:59:00,VALID,915.178,VALID,0,VALID,99.2869,VALID,0.0169808,VALID,20.0432,VALID,58,VALID,0.682706,
2007-02-26, 02:00:00,VALID,915.184,VALID,0,VALID,99.1572,VALID,0.0509425,VALID,20.024,VALID,50,VALID,0.396577,
2007-02-26, 02:01:00,VALID,915.185,VALID,0,VALID,99.1852,VALID,0,VALID,20.0205,VALID,50,VALID,0.243096,
2007-02-26, 02:02:00,VALID,915.2,VALID,0,VALID,99.3568,VALID,0.0169808,VALID,20.0167,VALID,39,VALID,0.360973,
2007-02-26, 02:03:00,VALID,915.192,VALID,0,VALID,99.4446,VALID,0.0339617,VALID,20.01,VALID,6,VALID,0.276414,
2007-02-26, 02:04:00,VALID,915.166,VALID,0,VALID,99.4675,VALID,0.0509425,VALID,20.004,VALID,5,VALID,0,
2007-02-26, 02:05:00,VALID,915.153,VALID,0,VALID,99.498,VALID,0.0339617,VALID,19.994,VALID,5,VALID,0.000186012,
2007-02-26, 02:06:00,VALID,915.129,VALID,0,VALID,99.5056,VALID,0.0679233,VALID,19.9843,VALID,5,VALID,0.0527344,
2007-02-26, 02:07:00,VALID,915.117,VALID,0,VALID,99.5794,VALID,0.0169808,VALID,19.9711,VALID,17,VALID,0.294017,
2007-02-26, 02:08:00,VALID,915.115,VALID,0,VALID,99.5616,VALID,0.0679233,VALID,19.9618,VALID,36,VALID,0.257431,
2007-02-26, 02:09:00,VALID,915.099,VALID,0,VALID,99.4509,VALID,0.0339617,VALID,19.9491,VALID,36,VALID,0.353379,
2007-02-26, 02:10:00,VALID,915.117,VALID,0,VALID,99.2119,VALID,0.0849042,VALID,19.9197,VALID,33,VALID,0.296317,
2007-02-26, 02:11:00,VALID,915.127,VALID,0,VALID,99.2475,VALID,0.0679233,VALID,19.9067,VALID,32,VALID,0.148247,
2007-02-26, 02:12:00,VALID,915.141,VALID,0,VALID,99.175,VALID,0,VALID,19.9004,VALID,32,VALID,0.348047,
2007-02-26, 02:13:00,VALID,915.15,VALID,0,VALID,99.1928,VALID,0,VALID,19.8812,VALID,32,VALID,0.0594815,
2007-02-26, 02:14:00,VALID,915.171,VALID,0,VALID,99.1241,VALID,0,VALID,19.8658,VALID,31,VALID,0,
2007-02-26, 02:15:00,VALID,915.191,VALID,0,VALID,99.1877,VALID,-0.0509425,VALID,19.8658,VALID,32,VALID,0,
2007-02-26, 02:16:00,VALID,915.181,VALID,0,VALID,99.3454,VALID,-0.0169808,VALID,19.8653,VALID,31,VALID,0,
2007-02-26, 02:17:00,VALID,915.173,VALID,0,VALID,99.4916,VALID,-0.0679233,VALID,19.895,VALID,32,VALID,0,
2007-02-26, 02:18:00,VALID,915.161,VALID,0,VALID,99.587,VALID,-0.0679233,VALID,19.9209,VALID,32,VALID,0.0699574,
2007-02-26, 02:19:00,VALID,915.146,VALID,0,VALID,99.1521,VALID,-0.0509425,VALID,19.895,VALID,32,VALID,0.321733,
2007-02-26, 02:20:00,VALID,915.135,VALID,0,VALID,99.2144,VALID,-0.0509425,VALID,19.8752,VALID,35,VALID,0.341146,
2007-02-26, 02:21:00,VALID,915.141,VALID,0,VALID,99.5259,VALID,-0.101885,VALID,19.9052,VALID,115,VALID,0.384766,
2007-02-26, 02:22:00,VALID,915.139,VALID,0,VALID,99.5895,VALID,-0.0849042,VALID,19.9109,VALID,116,VALID,0.467634,
2007-02-26, 02:23:00,VALID,915.134,VALID,0,VALID,99.2805,VALID,-0.0679233,VALID,19.8917,VALID,117,VALID,0.365663,
2007-02-26, 02:24:00,VALID,915.147,VALID,0,VALID,99.1419,VALID,-0.101885,VALID,19.8463,VALID,117,VALID,0.107422,
2007-02-26, 02:25:00,VALID,915.133,VALID,0,VALID,99.0885,VALID,-0.0339617,VALID,19.8268,VALID,117,VALID,0,
2007-02-26, 02:26:00,VALID,915.13,VALID,0,VALID,99.2119,VALID,-0.0679233,VALID,19.8101,VALID,117,VALID,0,
2007-02-26, 02:27:00,VALID,915.134,VALID,0,VALID,99.2309,VALID,-0.0509425,VALID,19.7969,VALID,117,VALID,0,
2007-02-26, 02:28:00,VALID,915.133,VALID,0,VALID,99.4191,VALID,-0.0509425,VALID,19.8101,VALID,117,VALID,0,
2007-02-26, 02:29:00,VALID,915.133,VALID,0,VALID,99.8044,VALID,-0.0679233,VALID,19.8488,VALID,117,VALID,0,
2007-02-26, 02:30:00,VALID,915.119,VALID,0,VALID,99.9278,VALID,-0.0339617,VALID,19.885,VALID,117,VALID,0.247638,
2007-02-26, 02:31:00,VALID,915.11,VALID,0,VALID,99.9906,VALID,-0.0509425,VALID,19.8847,VALID,117,VALID,0.120998,
2007-02-26, 02:32:00,VALID,915.105,VALID,0,VALID,99.7447,VALID,-0.0509425,VALID,19.8685,VALID,109,VALID,0.277439,
2007-02-26, 02:33:00,VALID,915.105,VALID,0,VALID,99.615,VALID,-0.0339617,VALID,19.8293,VALID,103,VALID,0.218555,
2007-02-26, 02:34:00,VALID,915.099,VALID,0,VALID,99.6963,VALID,-0.0509425,VALID,19.8296,VALID,101,VALID,0.410937,
2007-02-26, 02:35:00,VALID,915.1,VALID,0,VALID,99.6099,VALID,-0.0339617,VALID,19.8099,VALID,101,VALID,0.383575,
2007-02-26, 02:36:00,VALID,915.083,VALID,0,VALID,99.6277,VALID,-0.0509425,VALID,19.8076,VALID,100,VALID,0.395064,
2007-02-26, 02:37:00,VALID,915.079,VALID,0,VALID,99.353,VALID,-0.0339617,VALID,19.7714,VALID,101,VALID,0.745617,
2007-02-26, 02:38:00,VALID,915.073,VALID,0,VALID,99.3594,VALID,-0.0339617,VALID,19.7031,VALID,103,VALID,0.755149,
2007-02-26, 02:39:00,VALID,915.063,VALID,0,VALID,99.4547,VALID,0,VALID,19.6671,VALID,119,VALID,0.943555,
2007-02-26, 02:40:00,VALID,915.073,VALID,0,VALID,99.5692,VALID,-0.0509425,VALID,19.6284,VALID,126,VALID,0.883358,
2007-02-26, 02:41:00,VALID,915.06,VALID,0,VALID,99.8184,VALID,-0.0339617,VALID,19.5992,VALID,117,VALID,0.95694,
2007-02-26, 02:42:00,VALID,915.054,VALID,0,VALID,99.9733,VALID,-0.0169808,VALID,19.5798,VALID,127,VALID,1.20201,
2007-02-26, 02:43:00,VALID,915.055,VALID,0,VALID,99.9964,VALID,0,VALID,19.5506,VALID,106,VALID,0.710243,
2007-02-26, 02:44:00,VALID,915.043,VALID,0,VALID,100,VALID,0.0339617,VALID,19.5503,VALID,95,VALID,0.717448,
2007-02-26, 02:45:00,VALID,915.032,VALID,0,VALID,100,VALID,-0.0169808,VALID,19.5371,VALID,81,VALID,0.810976,
2007-02-26, 02:46:00,VALID,915.027,VALID,0,VALID,100,VALID,0,VALID,19.5274,VALID,70,VALID,0.854048,
2007-02-26, 02:47:00,VALID,915.012,VALID,0,VALID,100,VALID,-0.0169808,VALID,19.5176,VALID,82,VALID,0.652249,
2007-02-26, 02:48:00,VALID,915.024,VALID,0,VALID,100,VALID,0.0169808,VALID,19.5049,VALID,79,VALID,0.872456,
2007-02-26, 02:49:00,VALID,915.016,VALID,0,VALID,100,VALID,0,VALID,19.4887,VALID,84,VALID,1.02689,
2007-02-26, 02:50:00,VALID,914.992,VALID,0,VALID,100,VALID,-0.0169808,VALID,19.4695,VALID,104,VALID,0.798147,
2007-02-26, 02:51:00,VALID,915.002,VALID,0,VALID,100,VALID,0,VALID,19.4565,VALID,113,VALID,0.51478,
2007-02-26, 02:52:00,VALID,914.987,VALID,0,VALID,100,VALID,0.0169808,VALID,19.44,VALID,113,VALID,0.0939405,
2007-02-26, 02:53:00,VALID,914.993,VALID,0,VALID,100,VALID,0,VALID,19.4303,VALID,113,VALID,0.0992006,
2007-02-26, 02:54:00,VALID,915.007,VALID,0,VALID,100,VALID,0,VALID,19.4203,VALID,113,VALID,0.333031,
2007-02-26, 02:55:00,VALID,914.986,VALID,0,VALID,100,VALID,0.0169808,VALID,19.3979,VALID,106,VALID,0.688616,
2007-02-26, 02:56:00,VALID,914.988,VALID,0,VALID,100,VALID,0.0509425,VALID,19.3589,VALID,99,VALID,0.480655,
2007-02-26, 02:57:00,VALID,914.984,VALID,0,VALID,100,VALID,0.0169808,VALID,19.3325,VALID,99,VALID,0.461632,
2007-02-26, 02:58:00,VALID,914.963,VALID,0,VALID,100,VALID,0,VALID,19.3168,VALID,99,VALID,0.333171,
2007-02-26, 02:59:00,VALID,914.924,VALID,0,VALID,100,VALID,0.0169808,VALID,19.3138,VALID,99,VALID,0.233445,
2007-02-26, 03:00:00,VALID,914.893,VALID,0,VALID,100,VALID,0.0849042,VALID,19.313,VALID,99,VALID,0.182528,
2007-02-26, 03:01:00,VALID,914.883,VALID,0,VALID,100,VALID,0.0339617,VALID,19.3392,VALID,99,VALID,0.00798611,
2007-02-26, 03:02:00,VALID,914.877,VALID,0,VALID,100,VALID,-0.0169808,VALID,19.3358,VALID,99,VALID,0,
2007-02-26, 03:03:00,VALID,914.878,VALID,0,VALID,100,VALID,0,VALID,19.3557,VALID,99,VALID,0.0256944,
2007-02-26, 03:04:00,VALID,914.888,VALID,0,VALID,100,VALID,0.0339617,VALID,19.3622,VALID,99,VALID,0.0243902,
2007-02-26, 03:05:00,VALID,914.884,VALID,0,VALID,100,VALID,0,VALID,19.3392,VALID,99,VALID,0,
2007-02-26, 03:06:00,VALID,914.903,VALID,0,VALID,100,VALID,0,VALID,19.3457,VALID,99,VALID,0.0565044,
2007-02-26, 03:07:00,VALID,914.901,VALID,0,VALID,100,VALID,0.0509425,VALID,19.3298,VALID,93,VALID,0.443824,
2007-02-26, 03:08:00,VALID,914.906,VALID,0,VALID,100,VALID,0.0169808,VALID,19.3068,VALID,82,VALID,0.596912,
2007-02-26, 03:09:00,VALID,914.898,VALID,0,VALID,100,VALID,0,VALID,19.2779,VALID,70,VALID,0.807292,
2007-02-26, 03:10:00,VALID,914.912,VALID,0,VALID,100,VALID,0,VALID,19.2709,VALID,70,VALID,1.00709,
2007-02-26, 03:11:00,VALID,914.908,VALID,0,VALID,100,VALID,0,VALID,19.2714,VALID,70,VALID,0.663672,
2007-02-26, 03:12:00,VALID,914.906,VALID,0,VALID,99.9853,VALID,0,VALID,19.2809,VALID,70,VALID,0.284961,
2007-02-26, 03:13:00,VALID,914.904,VALID,0,VALID,99.821,VALID,0,VALID,19.2482,VALID,70,VALID,0.214939,
2007-02-26, 03:14:00,VALID,914.901,VALID,0,VALID,99.7103,VALID,0.0339617,VALID,19.2389,VALID,70,VALID,0.147485,
2007-02-26, 03:15:00,VALID,914.906,VALID,0,VALID,99.5921,VALID,0,VALID,19.1903,VALID,67,VALID,0.335938,
2007-02-26, 03:16:00,VALID,914.903,VALID,0,VALID,99.5374,VALID,0.0169808,VALID,19.1544,VALID,32,VALID,0.568824,
2007-02-26, 03:17:00,VALID,914.894,VALID,0,VALID,99.4077,VALID,0.0339617,VALID,19.1319,VALID,346,VALID,0.683308,
2007-02-26, 03:18:00,VALID,914.878,VALID,0,VALID,99.2551,VALID,0.0339617,VALID,19.0895,VALID,358,VALID,0.567472,
2007-02-26, 03:19:00,VALID,914.882,VALID,0,VALID,99.2093,VALID,0.0339617,VALID,19.0733,VALID,356,VALID,0.699491,
2007-02-26, 03:20:00,VALID,914.878,VALID,0,VALID,99.1203,VALID,0.0679233,VALID,19.0369,VALID,346,VALID,0.331522,
2007-02-26, 03:21:00,VALID,914.877,VALID,0,VALID,99.203,VALID,0,VALID,19.0605,VALID,329,VALID,0.308949,
2007-02-26, 03:22:00,VALID,914.883,VALID,0,VALID,99.1241,VALID,0.0509425,VALID,19.073,VALID,325,VALID,0.168679,
2007-02-26, 03:23:00,VALID,914.86,VALID,0,VALID,98.9512,VALID,0,VALID,19.083,VALID,329,VALID,0.160156,
2007-02-26, 03:24:00,VALID,914.866,VALID,0,VALID,98.6651,VALID,-0.0169808,VALID,19.0668,VALID,335,VALID,0.178445,
2007-02-26, 03:25:00,VALID,914.875,VALID,0,VALID,98.5811,VALID,0,VALID,19.0768,VALID,3,VALID,0.0376953,
2007-02-26, 03:26:00,VALID,914.87,VALID,0,VALID,98.529,VALID,0.0339617,VALID,19.083,VALID,89,VALID,0.129794,
2007-02-26, 03:27:00,VALID,914.869,VALID,0,VALID,98.4044,VALID,0,VALID,19.0768,VALID,89,VALID,0.0193452,
2007-02-26, 03:28:00,VALID,914.872,VALID,0,VALID,98.412,VALID,0,VALID,19.074,VALID,89,VALID,0,
2007-02-26, 03:29:00,VALID,914.87,VALID,0,VALID,98.2378,VALID,0,VALID,19.0707,VALID,89,VALID,0.0675223,
2007-02-26, 03:30:00,VALID,914.863,VALID,0,VALID,98.1208,VALID,0,VALID,19.0573,VALID,73,VALID,0.29184,
2007-02-26, 03:31:00,VALID,914.873,VALID,0,VALID,98.1068,VALID,0,VALID,19.0967,VALID,48,VALID,0.196243,
2007-02-26, 03:32:00,VALID,914.872,VALID,0,VALID,97.9034,VALID,-0.0169808,VALID,19.09,VALID,32,VALID,0.294212,
2007-02-26, 03:33:00,VALID,914.88,VALID,0,VALID,97.7101,VALID,-0.0509425,VALID,19.08,VALID,3,VALID,0.179506,
2007-02-26, 03:34:00,VALID,914.88,VALID,0,VALID,97.5639,VALID,0,VALID,19.0446,VALID,353,VALID,0.344122,
2007-02-26, 03:35:00,VALID,914.873,VALID,0,VALID,97.4952,VALID,-0.0509425,VALID,19.0151,VALID,353,VALID,0.43679,
2007-02-26, 03:36:00,VALID,914.876,VALID,0,VALID,97.5461,VALID,-0.0339617,VALID,19.0124,VALID,25,VALID,0.748698,
2007-02-26, 03:37:00,VALID,914.86,VALID,0,VALID,97.6007,VALID,-0.0339617,VALID,19.0064,VALID,55,VALID,0.667188,
2007-02-26, 03:38:00,VALID,914.852,VALID,0,VALID,97.7215,VALID,0,VALID,18.9762,VALID,55,VALID,0.370094,